Time,TemperatureF,DewpointF,PressureIn,WindDirection,WindDirectionDegrees,WindSpeedMPH,WindSpeedGustMPH,Humidity,HourlyPrecipIn,Conditions,Clouds,dailyrainin,SoftwareType,DateUTC
2013-09-11 00:01:00,71.4,66.0,30.14,SW,222,0.0,0.0,83,0.00,RA,,0.00,WeatherDisplay:10.37,2013-09-11 04:01:00,
2013-09-11 00:02:00,71.4,66.0,30.14,SW,222,0.0,0.0,83,0.00,RA,,0.00,WeatherDisplay:10.37,2013-09-11 04:02:00,
2013-09-11 00:03:00,71.4,66.0,30.14,SW,222,0.0,0.0,83,0.00,RA,,0.00,WeatherDisplay:10.37,2013-09-11 04:03:00,
2013-09-11 00:08:00,71.2,65.8,30.15,West,267,0.0,0.0,83,0.00,RA,,0.00,WeatherDisplay:10.37,2013-09-11 04:08:00,
2013-09-11 00:13:00,71.2,66.2,30.14,WNW,289,0.0,0.0,84,0.00,CLR,,0.00,WeatherDisplay:10.37,2013-09-11 04:13:00,
2013-09-11 00:18:00,71.2,66.2,30.15,East,87,0.0,0.0,84,0.00,CLR,,0.00,WeatherDisplay:10.37,2013-09-11 04:18:00,
2013-09-11 00:23:00,71.1,66.0,30.15,East,87,0.0,0.0,84,0.00,CLR,,0.00,WeatherDisplay:10.37,2013-09-11 04:23:00,
2013-09-11 00:28:00,70.9,65.8,30.15,East,87,0.0,0.0,84,0.00,CLR,,0.00,WeatherDisplay:10.37,2013-09-11 04:28:00,
2013-09-11 00:33:00,70.9,65.8,30.15,East,87,0.0,0.0,84,0.00,CLR,,0.00,WeatherDisplay:10.37,2013-09-11 04:33:00,
2013-09-11 00:38:00,70.7,65.6,30.15,East,87,0.0,0.0,84,0.00,CLR,,0.00,WeatherDisplay:10.37,2013-09-11 04:38:00,
2013-09-11 00:43:00,70.7,65.6,30.15,SE,132,0.0,0.0,84,0.00,CLR,,0.00,WeatherDisplay:10.37,2013-09-11 04:43:00,
2013-09-11 00:48:00,70.5,65.4,30.15,West,267,0.0,0.0,84,0.00,CLR,,0.00,WeatherDisplay:10.37,2013-09-11 04:48:00,
2013-09-11 00:53:00,70.5,65.8,30.15,WSW,245,0.0,0.0,85,0.00,CLR,,0.00,WeatherDisplay:10.37,2013-09-11 04:53:00,
2013-09-11 00:58:00,70.5,65.4,30.15,South,177,0.0,0.0,84,0.00,CLR,,0.00,WeatherDisplay:10.37,2013-09-11 04:58:00,
2013-09-11 01:03:00,70.5,65.8,30.15,SSE,155,0.0,0.0,85,0.00,CLR,,0.00,WeatherDisplay:10.37,2013-09-11 05:03:00,
2013-09-11 01:08:00,70.5,65.8,30.15,SSE,155,0.0,0.0,85,0.00,CLR,,0.00,WeatherDisplay:10.37,2013-09-11 05:08:00,
2013-09-11 01:13:00,70.3,65.3,30.14,SE,132,0.0,0.0,84,0.00,CLR,,0.00,WeatherDisplay:10.37,2013-09-11 05:13:00,
2013-09-11 01:18:00,70.3,65.3,30.14,South,177,0.7,1.1,84,0.00,CLR,,0.00,WeatherDisplay:10.37,2013-09-11 05:18:00,
2013-09-11 01:23:00,70.3,65.3,30.14,SSE,155,0.6,1.1,84,0.00,CLR,,0.00,WeatherDisplay:10.37,2013-09-11 05:23:00,
2013-09-11 01:28:00,70.3,65.3,30.14,SE,132,0.0,0.0,84,0.00,CLR,,0.00,WeatherDisplay:10.37,2013-09-11 05:28:00,
2013-09-11 01:33:00,70.3,65.3,30.14,SSE,155,1.6,1.6,84,0.00,CLR,,0.00,WeatherDisplay:10.37,2013-09-11 05:33:00,
2013-09-11 01:38:00,70.3,65.3,30.14,South,177,1.1,2.2,84,0.00,CLR,,0.00,WeatherDisplay:10.37,2013-09-11 05:38:00,
2013-09-11 01:43:00,70.2,65.1,30.14,South,177,3.4,3.5,84,0.00,CLR,,0.00,WeatherDisplay:10.37,2013-09-11 05:43:00,
2013-09-11 01:48:00,70.2,65.1,30.14,South,177,1.6,1.6,84,0.00,CLR,,0.00,WeatherDisplay:10.37,2013-09-11 05:48:00,
2013-09-11 01:54:00,70.2,64.8,30.14,South,177,2.9,3.5,83,0.00,CLR,,0.00,WeatherDisplay:10.37,2013-09-11 05:54:00,
2013-09-11 01:59:00,70.2,64.8,30.14,SE,132,2.9,3.5,83,0.00,CLR,,0.00,WeatherDisplay:10.37,2013-09-11 05:59:00,
2013-09-11 02:04:00,70.2,64.8,30.14,WSW,245,2.1,0.0,83,0.00,CLR,,0.00,WeatherDisplay:10.37,2013-09-11 06:04:00,
2013-09-11 02:09:00,70.2,64.8,30.14,SSW,199,0.0,0.0,83,0.00,CLR,,0.00,WeatherDisplay:10.37,2013-09-11 06:09:00,
2013-09-11 02:14:00,70.2,64.8,30.14,SSW,199,2.1,2.3,83,0.00,CLR,,0.00,WeatherDisplay:10.37,2013-09-11 06:14:00,
2013-09-11 02:19:00,70.0,64.2,30.14,SSW,199,2.0,2.3,82,0.00,CLR,,0.00,WeatherDisplay:10.37,2013-09-11 06:19:00,
2013-09-11 02:24:00,70.0,64.2,30.14,South,177,0.6,1.1,82,0.00,CLR,,0.00,WeatherDisplay:10.37,2013-09-11 06:24:00,
2013-09-11 02:29:00,69.8,64.1,30.14,SSE,155,0.0,0.0,82,0.00,CLR,,0.00,WeatherDisplay:10.37,2013-09-11 06:29:00,
2013-09-11 02:34:00,69.8,64.1,30.15,South,177,1.3,1.3,82,0.00,CLR,,0.00,WeatherDisplay:10.37,2013-09-11 06:34:00,
2013-09-11 02:39:00,69.6,63.9,30.14,South,177,0.0,0.0,82,0.00,CLR,,0.00,WeatherDisplay:10.37,2013-09-11 06:39:00,
2013-09-11 02:44:00,69.6,63.9,30.14,SSW,199,0.0,0.0,82,0.00,CLR,,0.00,WeatherDisplay:10.37,2013-09-11 06:44:00,
2013-09-11 02:49:00,69.6,63.9,30.14,SSW,199,2.2,2.3,82,0.00,CLR,,0.00,WeatherDisplay:10.37,2013-09-11 06:49:00,
2013-09-11 02:54:00,69.4,63.4,30.14,SW,222,1.0,3.5,81,0.00,CLR,,0.00,WeatherDisplay:10.37,2013-09-11 06:54:00,
2013-09-11 02:59:00,69.4,63.4,30.14,South,177,1.3,1.3,81,0.00,CLR,,0.00,WeatherDisplay:10.37,2013-09-11 06:59:00,
2013-09-11 03:04:00,69.4,63.4,30.15,SW,222,2.4,2.4,81,0.00,CLR,,0.00,WeatherDisplay:10.37,2013-09-11 07:04:00,
2013-09-11 03:09:00,69.4,63.4,30.15,SSW,199,0.9,1.1,81,0.00,CLR,,0.00,WeatherDisplay:10.37,2013-09-11 07:09:00,
2013-09-11 03:14:00,69.3,63.2,30.15,SSE,155,0.0,0.0,81,0.00,CLR,,0.00,WeatherDisplay:10.37,2013-09-11 07:14:00,
2013-09-11 03:19:00,69.3,63.5,30.15,SSW,199,0.0,0.0,82,0.00,CLR,,0.00,WeatherDisplay:10.37,2013-09-11 07:19:00,
2013-09-11 03:24:00,69.1,63.0,30.15,South,177,0.0,0.0,81,0.00,CLR,,0.00,WeatherDisplay:10.37,2013-09-11 07:24:00,
2013-09-11 03:29:00,69.1,63.0,30.14,SSE,155,0.6,1.1,81,0.00,CLR,,0.00,WeatherDisplay:10.37,2013-09-11 07:29:00,
2013-09-11 03:34:00,69.1,63.0,30.14,South,177,0.0,0.0,81,0.00,CLR,,0.00,WeatherDisplay:10.37,2013-09-11 07:34:00,
2013-09-11 03:39:00,68.9,62.8,30.14,South,177,0.0,0.0,81,0.00,CLR,,0.00,WeatherDisplay:10.37,2013-09-11 07:39:00,
2013-09-11 03:44:00,68.9,62.8,30.14,South,177,1.1,1.1,81,0.00,CLR,,0.00,WeatherDisplay:10.37,2013-09-11 07:44:00,
2013-09-11 03:49:00,68.7,62.7,30.14,SSW,199,1.7,2.3,81,0.00,CLR,,0.00,WeatherDisplay:10.37,2013-09-11 07:49:00,
2013-09-11 03:54:00,68.7,62.7,30.14,SW,222,0.0,0.0,81,0.00,CLR,,0.00,WeatherDisplay:10.37,2013-09-11 07:54:00,
2013-09-11 03:59:00,68.7,62.7,30.14,South,177,3.4,3.5,81,0.00,CLR,,0.00,WeatherDisplay:10.37,2013-09-11 07:59:00,
2013-09-11 04:04:00,68.7,62.7,30.14,SW,222,0.0,0.0,81,0.00,CLR,,0.00,WeatherDisplay:10.37,2013-09-11 08:04:00,
2013-09-11 04:09:00,68.7,63.0,30.14,WSW,245,1.2,3.5,82,0.00,CLR,,0.00,WeatherDisplay:10.37,2013-09-11 08:09:00,
2013-09-11 04:14:00,68.7,62.7,30.14,SW,222,4.2,4.6,81,0.00,CLR,,0.00,WeatherDisplay:10.37,2013-09-11 08:14:00,
2013-09-11 04:19:00,68.7,62.7,30.14,WSW,245,1.5,2.3,81,0.00,CLR,,0.00,WeatherDisplay:10.37,2013-09-11 08:19:00,
2013-09-11 04:24:00,68.7,63.0,30.15,SSW,199,4.3,5.4,82,0.00,CLR,,0.00,WeatherDisplay:10.37,2013-09-11 08:24:00,
2013-09-11 04:29:00,68.7,63.3,30.15,WSW,245,2.7,2.7,83,0.00,CLR,,0.00,WeatherDisplay:10.37,2013-09-11 08:29:00,
2013-09-11 04:34:00,68.7,63.0,30.15,West,267,3.6,3.6,82,0.00,CLR,,0.00,WeatherDisplay:10.37,2013-09-11 08:34:00,
2013-09-11 04:39:00,68.9,63.2,30.15,WSW,245,2.5,2.5,82,0.00,CLR,,0.00,WeatherDisplay:10.37,2013-09-11 08:39:00,
2013-09-11 04:44:00,68.9,63.5,30.15,SSW,199,3.1,4.6,83,0.00,CLR,,0.00,WeatherDisplay:10.37,2013-09-11 08:44:00,
2013-09-11 04:49:00,68.9,63.2,30.14,WSW,245,1.7,3.1,82,0.00,CLR,,0.00,WeatherDisplay:10.37,2013-09-11 08:49:00,
2013-09-11 04:54:00,68.9,63.2,30.14,SSW,199,2.6,3.5,82,0.00,CLR,,0.00,WeatherDisplay:10.37,2013-09-11 08:54:00,
2013-09-11 04:59:00,68.9,63.2,30.14,West,267,2.5,3.5,82,0.00,CLR,,0.00,WeatherDisplay:10.37,2013-09-11 08:59:00,
2013-09-11 05:04:00,68.9,63.5,30.14,SSW,199,0.0,0.0,83,0.00,CLR,,0.00,WeatherDisplay:10.37,2013-09-11 09:04:00,
2013-09-11 05:09:00,68.9,63.2,30.14,South,177,0.0,0.0,82,0.00,CLR,,0.00,WeatherDisplay:10.37,2013-09-11 09:09:00,
2013-09-11 05:14:00,68.7,63.0,30.14,South,177,0.0,1.1,82,0.00,CLR,,0.00,WeatherDisplay:10.37,2013-09-11 09:14:00,
2013-09-11 05:19:00,68.7,63.0,30.15,SSW,199,1.1,1.1,82,0.00,CLR,,0.00,WeatherDisplay:10.37,2013-09-11 09:19:00,
2013-09-11 05:24:00,68.7,63.0,30.15,SW,222,0.0,0.0,82,0.00,CLR,,0.00,WeatherDisplay:10.37,2013-09-11 09:24:00,
2013-09-11 05:29:00,68.7,63.0,30.14,SW,222,0.0,0.0,82,0.00,CLR,,0.00,WeatherDisplay:10.37,2013-09-11 09:29:00,
2013-09-11 05:34:00,68.7,63.0,30.15,WSW,245,0.0,0.0,82,0.00,CLR,,0.00,WeatherDisplay:10.37,2013-09-11 09:34:00,
2013-09-11 05:39:00,68.5,62.8,30.15,WSW,245,0.1,0.0,82,0.00,CLR,,0.00,WeatherDisplay:10.37,2013-09-11 09:39:00,
2013-09-11 05:44:00,68.5,63.2,30.15,SW,222,1.6,1.6,83,0.00,CLR,,0.00,WeatherDisplay:10.37,2013-09-11 09:44:00,
2013-09-11 05:49:00,68.7,63.3,30.15,South,177,0.2,1.6,83,0.00,CLR,,0.00,WeatherDisplay:10.37,2013-09-11 09:49:00,
2013-09-11 05:54:00,68.7,63.3,30.15,SSW,199,0.0,0.0,83,0.00,CLR,,0.00,WeatherDisplay:10.37,2013-09-11 09:54:00,
2013-09-11 05:59:00,68.7,63.0,30.15,South,177,1.8,2.3,82,0.00,CLR,,0.00,WeatherDisplay:10.37,2013-09-11 09:59:00,
2013-09-11 06:04:00,68.7,63.0,30.15,SSW,199,2.2,2.3,82,0.00,CLR,,0.00,WeatherDisplay:10.37,2013-09-11 10:04:00,
2013-09-11 06:09:00,68.7,63.3,30.15,WNW,289,2.9,3.5,83,0.00,CLR,,0.00,WeatherDisplay:10.37,2013-09-11 10:09:00,
2013-09-11 06:14:00,68.7,63.3,30.15,SSW,199,3.1,3.5,83,0.00,CLR,,0.00,WeatherDisplay:10.37,2013-09-11 10:14:00,
2013-09-11 06:19:00,68.7,63.3,30.15,West,267,2.2,2.3,83,0.00,CLR,,0.00,WeatherDisplay:10.37,2013-09-11 10:19:00,
2013-09-11 06:24:00,68.7,63.0,30.15,SSW,199,3.5,3.8,82,0.00,CLR,,0.00,WeatherDisplay:10.37,2013-09-11 10:24:00,
2013-09-11 06:29:00,68.7,63.0,30.15,WSW,245,1.6,3.1,82,0.00,CLR,,0.00,WeatherDisplay:10.37,2013-09-11 10:29:00,
2013-09-11 06:34:00,68.7,63.0,30.15,SW,222,1.7,2.3,82,0.00,CLR,,0.00,WeatherDisplay:10.37,2013-09-11 10:34:00,
2013-09-11 06:39:00,68.7,63.0,30.15,SSW,199,3.6,3.6,82,0.00,CLR,,0.00,WeatherDisplay:10.37,2013-09-11 10:39:00,
2013-09-11 06:44:00,68.7,63.3,30.15,SSW,199,4.0,4.0,83,0.00,CLR,,0.00,WeatherDisplay:10.37,2013-09-11 10:44:00,
2013-09-11 06:49:00,68.7,63.3,30.15,SSW,199,0.0,0.0,83,0.00,CLR,,0.00,WeatherDisplay:10.37,2013-09-11 10:49:00,
2013-09-11 06:54:00,68.7,63.0,30.16,SSW,199,2.0,2.3,82,0.00,CLR,,0.00,WeatherDisplay:10.37,2013-09-11 10:54:00,
2013-09-11 06:59:00,68.5,63.2,30.16,SW,222,0.0,2.7,83,0.00,CLR,,0.00,WeatherDisplay:10.37,2013-09-11 10:59:00,
2013-09-11 07:04:00,68.5,63.2,30.16,SSE,155,1.6,2.3,83,0.00,CLR,,0.00,WeatherDisplay:10.37,2013-09-11 11:04:00,
2013-09-11 07:09:00,68.5,63.2,30.16,SSW,199,2.5,2.5,83,0.00,CLR,,0.00,WeatherDisplay:10.37,2013-09-11 11:09:00,
2013-09-11 07:14:00,68.5,63.2,30.16,SSW,199,2.2,2.3,83,0.00,CLR,,0.00,WeatherDisplay:10.37,2013-09-11 11:14:00,
2013-09-11 07:19:00,68.5,63.2,30.16,SW,222,2.1,2.3,83,0.00,CLR,,0.00,WeatherDisplay:10.37,2013-09-11 11:19:00,
2013-09-11 07:24:00,68.5,63.5,30.16,SW,222,0.0,0.0,84,0.00,CLR,,0.00,WeatherDisplay:10.37,2013-09-11 11:24:00,
2013-09-11 07:29:00,68.5,63.5,30.16,SSW,199,4.1,4.6,84,0.00,CLR,,0.00,WeatherDisplay:10.37,2013-09-11 11:29:00,
2013-09-11 07:34:00,68.5,63.2,30.16,West,267,1.0,2.3,83,0.00,CLR,,0.00,WeatherDisplay:10.37,2013-09-11 11:34:00,
2013-09-11 07:39:00,68.5,63.5,30.16,South,177,2.3,2.5,84,0.00,CLR,,0.00,WeatherDisplay:10.37,2013-09-11 11:39:00,
2013-09-11 07:44:00,68.5,63.5,30.17,SSW,199,2.5,2.9,84,0.00,CLR,,0.00,WeatherDisplay:10.37,2013-09-11 11:44:00,
2013-09-11 07:49:00,68.7,63.7,30.17,South,177,0.6,1.1,84,0.00,CLR,,0.00,WeatherDisplay:10.37,2013-09-11 11:49:00,
2013-09-11 07:54:00,68.7,63.7,30.17,SSW,199,0.5,3.5,84,0.00,CLR,,0.00,WeatherDisplay:10.37,2013-09-11 11:54:00,
2013-09-11 07:59:00,68.9,63.5,30.17,SW,222,0.7,1.1,83,0.00,CLR,,0.00,WeatherDisplay:10.37,2013-09-11 11:59:00,
2013-09-11 08:04:00,69.1,64.0,30.17,SSW,199,0.0,0.0,84,0.00,CLR,,0.00,WeatherDisplay:10.37,2013-09-11 12:04:00,
2013-09-11 08:09:00,69.4,64.4,30.17,WSW,245,0.0,3.5,84,0.00,CLR,,0.00,WeatherDisplay:10.37,2013-09-11 12:09:00,
2013-09-11 08:14:00,69.4,64.4,30.18,West,267,2.5,2.5,84,0.00,CLR,,0.00,WeatherDisplay:10.37,2013-09-11 12:14:00,
2013-09-11 08:19:00,69.6,64.6,30.18,South,177,2.6,3.5,84,0.00,CLR,,0.00,WeatherDisplay:10.37,2013-09-11 12:19:00,
2013-09-11 08:24:00,69.8,64.7,30.18,South,177,2.0,2.3,84,0.00,CLR,,0.00,WeatherDisplay:10.37,2013-09-11 12:24:00,
2013-09-11 08:29:00,70.2,65.1,30.18,South,177,3.4,4.9,84,0.00,CLR,,0.00,WeatherDisplay:10.37,2013-09-11 12:29:00,
2013-09-11 08:34:00,70.3,65.3,30.18,SSW,199,1.6,4.6,84,0.00,CLR,,0.00,WeatherDisplay:10.37,2013-09-11 12:34:00,
2013-09-11 08:39:00,70.3,65.3,30.18,SSW,199,4.7,4.7,84,0.00,CLR,,0.00,WeatherDisplay:10.37,2013-09-11 12:39:00,
2013-09-11 08:44:00,70.7,65.6,30.18,SSW,199,0.0,0.0,84,0.00,CLR,,0.00,WeatherDisplay:10.37,2013-09-11 12:44:00,
2013-09-11 08:49:00,71.2,66.2,30.18,South,177,5.0,5.8,84,0.00,CLR,,0.00,WeatherDisplay:10.37,2013-09-11 12:49:00,
2013-09-11 08:54:00,71.4,66.3,30.18,SSE,155,1.1,3.5,84,0.00,CLR,,0.00,WeatherDisplay:10.37,2013-09-11 12:54:00,
2013-09-11 08:59:00,72.0,66.9,30.18,WSW,245,2.9,3.5,84,0.00,CLR,,0.00,WeatherDisplay:10.37,2013-09-11 12:59:00,
2013-09-11 09:04:00,72.9,67.7,30.18,SSW,199,2.0,3.5,84,0.00,CLR,,0.02,WeatherDisplay:10.37,2013-09-11 13:04:00,
2013-09-11 09:09:00,73.6,67.7,30.18,South,177,2.2,2.3,82,0.02,RA,,0.02,WeatherDisplay:10.37,2013-09-11 13:09:00,
2013-09-11 09:14:00,74.1,68.6,30.18,South,177,3.6,3.6,83,0.02,RA,,0.02,WeatherDisplay:10.37,2013-09-11 13:14:00,
2013-09-11 09:19:00,74.7,68.4,30.18,SW,222,1.8,6.9,81,0.02,SCT,,0.02,WeatherDisplay:10.37,2013-09-11 13:19:00,
2013-09-11 09:24:00,75.0,68.8,30.18,South,177,3.1,3.5,81,0.02,SCT,,0.02,WeatherDisplay:10.37,2013-09-11 13:24:00,
2013-09-11 09:29:00,75.2,69.0,30.18,SSE,155,2.5,4.2,81,0.02,SCT,,0.02,WeatherDisplay:10.37,2013-09-11 13:29:00,
2013-09-11 09:34:00,75.6,69.3,30.18,SSW,199,3.2,3.5,81,0.02,SCT,,0.02,WeatherDisplay:10.37,2013-09-11 13:34:00,
2013-09-11 09:39:00,75.9,70.0,30.18,SW,222,0.7,1.1,82,0.02,SCT,,0.02,WeatherDisplay:10.37,2013-09-11 13:39:00,
2013-09-11 09:44:00,77.2,70.9,30.17,SW,222,3.1,3.5,81,0.02,SCT,,0.02,WeatherDisplay:10.37,2013-09-11 13:44:00,
2013-09-11 09:49:00,77.7,70.7,30.18,SSW,199,3.4,4.6,79,0.02,SCT,,0.02,WeatherDisplay:10.37,2013-09-11 13:49:00,
2013-09-11 09:54:00,78.6,71.2,30.18,South,177,5.4,8.1,78,0.02,SCT,,0.02,WeatherDisplay:10.37,2013-09-11 13:54:00,
2013-09-11 09:59:00,79.5,72.1,30.18,SW,222,1.4,1.8,78,0.02,SCT,,0.02,WeatherDisplay:10.37,2013-09-11 13:59:00,
2013-09-11 10:04:00,80.4,72.5,30.18,SW,222,3.9,4.0,77,0.02,SCT,,0.02,WeatherDisplay:10.37,2013-09-11 14:04:00,
2013-09-11 10:09:00,81.1,72.9,30.18,WNW,289,4.2,4.6,76,0.00,SCT,,0.02,WeatherDisplay:10.37,2013-09-11 14:09:00,
2013-09-11 10:14:00,81.3,72.6,30.18,WSW,245,2.2,2.3,75,0.00,SCT,,0.02,WeatherDisplay:10.37,2013-09-11 14:14:00,
2013-09-11 10:19:00,82.2,73.1,30.18,West,267,4.9,4.9,74,0.00,SCT,,0.02,WeatherDisplay:10.37,2013-09-11 14:19:00,
2013-09-11 10:24:00,82.9,73.8,30.18,South,177,2.5,2.5,74,0.00,SCT,,0.02,WeatherDisplay:10.37,2013-09-11 14:24:00,
2013-09-11 10:29:00,83.8,73.8,30.18,West,267,4.5,4.6,72,0.00,SCT,,0.02,WeatherDisplay:10.37,2013-09-11 14:29:00,
2013-09-11 10:34:00,84.7,74.3,30.17,West,267,3.6,3.6,71,0.00,SCT,,0.02,WeatherDisplay:10.37,2013-09-11 14:34:00,
2013-09-11 10:39:00,85.1,73.8,30.17,WSW,245,6.9,6.9,69,0.00,SCT,,0.02,WeatherDisplay:10.37,2013-09-11 14:39:00,
2013-09-11 10:44:00,85.3,73.5,30.18,West,267,4.2,11.4,68,0.00,SCT,,0.02,WeatherDisplay:10.37,2013-09-11 14:44:00,
2013-09-11 10:49:00,85.3,73.1,30.17,WSW,245,2.5,2.5,67,0.00,SCT,,0.02,WeatherDisplay:10.37,2013-09-11 14:49:00,
2013-09-11 10:54:00,84.9,72.7,30.17,WSW,245,4.2,4.6,67,0.00,SCT,,0.02,WeatherDisplay:10.37,2013-09-11 14:54:00,
2013-09-11 10:59:00,85.3,73.5,30.17,West,267,5.0,5.0,68,0.00,SCT,,0.02,WeatherDisplay:10.37,2013-09-11 14:59:00,
2013-09-11 11:04:00,85.3,73.5,30.17,West,267,2.2,4.2,68,0.00,SCT,,0.02,WeatherDisplay:10.37,2013-09-11 15:04:00,
2013-09-11 11:09:00,85.1,72.5,30.17,NNW,335,6.3,6.3,66,0.00,FEW,,0.02,WeatherDisplay:10.37,2013-09-11 15:09:00,
2013-09-11 11:14:00,84.9,73.2,30.17,West,267,1.1,3.5,68,0.00,FEW,,0.02,WeatherDisplay:10.37,2013-09-11 15:14:00,
2013-09-11 11:19:00,85.6,73.9,30.17,SW,222,2.5,2.5,68,0.00,FEW,,0.02,WeatherDisplay:10.37,2013-09-11 15:19:00,
2013-09-11 11:24:00,86.5,74.3,30.16,WSW,245,3.1,3.5,67,0.00,FEW,,0.02,WeatherDisplay:10.37,2013-09-11 15:24:00,
2013-09-11 11:29:00,87.1,73.9,30.17,SE,132,1.9,4.6,65,0.00,FEW,,0.02,WeatherDisplay:10.37,2013-09-11 15:29:00,
2013-09-11 11:34:00,87.4,74.2,30.17,West,267,6.7,9.2,65,0.00,FEW,,0.02,WeatherDisplay:10.37,2013-09-11 15:34:00,
2013-09-11 11:39:00,87.1,74.3,30.17,SW,222,3.3,3.5,66,0.00,FEW,,0.02,WeatherDisplay:10.37,2013-09-11 15:39:00,
2013-09-11 11:44:00,88.0,75.2,30.17,West,267,4.2,4.6,66,0.00,FEW,,0.02,WeatherDisplay:10.37,2013-09-11 15:44:00,
2013-09-11 11:49:00,88.3,74.1,30.16,West,267,3.6,4.6,63,0.00,FEW,,0.02,WeatherDisplay:10.37,2013-09-11 15:49:00,
2013-09-11 11:54:00,88.0,73.3,30.17,WNW,289,6.7,6.9,62,0.00,FEW,,0.02,WeatherDisplay:10.37,2013-09-11 15:54:00,
2013-09-11 11:59:00,86.9,72.8,30.17,WSW,245,4.0,4.6,63,0.00,FEW,,0.02,WeatherDisplay:10.37,2013-09-11 15:59:00,
2013-09-11 12:04:00,87.1,73.4,30.17,NW,312,1.3,3.5,64,0.00,FEW,,0.02,WeatherDisplay:10.37,2013-09-11 16:04:00,
2013-09-11 12:09:00,87.1,73.9,30.16,SW,222,1.8,2.3,65,0.00,FEW,,0.02,WeatherDisplay:10.37,2013-09-11 16:09:00,
2013-09-11 12:14:00,87.1,73.4,30.16,North,357,1.7,3.5,64,0.00,FEW,,0.02,WeatherDisplay:10.37,2013-09-11 16:14:00,
2013-09-11 12:19:00,87.1,73.9,30.16,SW,222,0.7,3.5,65,0.00,FEW,,0.02,WeatherDisplay:10.37,2013-09-11 16:19:00,
2013-09-11 12:24:00,87.3,73.1,30.16,West,267,3.8,3.8,63,0.00,FEW,,0.02,WeatherDisplay:10.37,2013-09-11 16:24:00,
2013-09-11 12:29:00,87.8,74.6,30.16,West,267,3.0,3.5,65,0.00,FEW,,0.02,WeatherDisplay:10.37,2013-09-11 16:29:00,
2013-09-11 12:34:00,88.5,75.2,30.15,South,177,0.0,2.3,65,0.00,FEW,,0.02,WeatherDisplay:10.37,2013-09-11 16:34:00,
2013-09-11 12:39:00,89.4,75.6,30.15,SSW,199,2.0,5.6,64,0.00,FEW,,0.02,WeatherDisplay:10.37,2013-09-11 16:39:00,
2013-09-11 12:44:00,90.0,75.7,30.15,SSE,155,3.7,3.7,63,0.00,FEW,,0.02,WeatherDisplay:10.37,2013-09-11 16:44:00,
2013-09-11 12:49:00,90.7,75.9,30.15,SSE,155,3.4,3.5,62,0.00,FEW,,0.02,WeatherDisplay:10.37,2013-09-11 16:49:00,
2013-09-11 12:54:00,91.2,75.9,30.15,SSE,155,2.2,2.3,61,0.00,FEW,,0.02,WeatherDisplay:10.37,2013-09-11 16:54:00,
2013-09-11 12:59:00,92.5,77.6,30.15,West,267,0.6,0.9,62,0.00,FEW,,0.02,WeatherDisplay:10.37,2013-09-11 16:59:00,
2013-09-11 13:04:00,93.4,76.9,30.15,SW,222,2.0,2.3,59,0.00,FEW,,0.02,WeatherDisplay:10.37,2013-09-11 17:04:00,
2013-09-11 13:09:00,93.9,75.8,30.15,WSW,245,5.1,5.1,56,0.00,FEW,,0.02,WeatherDisplay:10.37,2013-09-11 17:09:00,
2013-09-11 13:14:00,93.9,75.8,30.15,West,267,3.8,4.6,56,0.00,FEW,,0.02,WeatherDisplay:10.37,2013-09-11 17:14:00,
2013-09-11 13:19:00,93.6,75.5,30.15,NW,312,1.8,2.3,56,0.00,FEW,,0.02,WeatherDisplay:10.37,2013-09-11 17:19:00,
2013-09-11 13:25:00,93.6,76.0,30.15,West,267,4.0,4.0,57,0.00,FEW,,0.02,WeatherDisplay:10.37,2013-09-11 17:25:00,
2013-09-11 13:30:00,92.7,74.1,30.14,WSW,245,0.1,1.1,55,0.00,FEW,,0.02,WeatherDisplay:10.37,2013-09-11 17:30:00,
2013-09-11 13:35:00,91.9,75.0,30.14,SW,222,5.4,5.8,58,0.00,FEW,,0.02,WeatherDisplay:10.37,2013-09-11 17:35:00,
2013-09-11 13:40:00,92.5,75.0,30.14,SE,132,3.1,3.8,57,0.00,FEW,,0.02,WeatherDisplay:10.37,2013-09-11 17:40:00,
2013-09-11 13:45:00,93.0,76.1,30.14,SSW,199,3.4,4.6,58,0.00,FEW,,0.02,WeatherDisplay:10.37,2013-09-11 17:45:00,
2013-09-11 13:50:00,93.9,76.4,30.14,SW,222,4.8,5.8,57,0.00,FEW,,0.02,WeatherDisplay:10.37,2013-09-11 17:50:00,
2013-09-11 13:55:00,94.5,75.9,30.14,SSW,212,1.0,0.0,55,0.00,FEW,,0.02,WeatherDisplay:10.37,2013-09-11 17:55:00,
2013-09-11 14:00:00,94.6,76.0,30.13,SE,132,3.3,3.5,55,0.00,FEW,,0.02,WeatherDisplay:10.37,2013-09-11 18:00:00,
2013-09-11 14:05:00,94.6,76.0,30.13,SSE,155,1.3,9.2,55,0.00,FEW,,0.02,WeatherDisplay:10.37,2013-09-11 18:05:00,
2013-09-11 14:10:00,94.8,76.1,30.14,SSE,155,2.5,3.5,55,0.00,FEW,,0.02,WeatherDisplay:10.37,2013-09-11 18:10:00,
2013-09-11 14:15:00,94.8,76.1,30.13,SE,132,2.5,2.5,55,0.00,FEW,,0.02,WeatherDisplay:10.37,2013-09-11 18:15:00,
2013-09-11 14:20:00,94.6,76.0,30.13,SSE,155,3.6,3.6,55,0.00,FEW,,0.02,WeatherDisplay:10.37,2013-09-11 18:20:00,
2013-09-11 14:25:00,94.8,76.1,30.12,WNW,289,5.0,5.8,55,0.00,FEW,,0.02,WeatherDisplay:10.37,2013-09-11 18:25:00,
2013-09-11 14:30:00,95.0,76.3,30.12,West,267,3.8,4.6,55,0.00,FEW,,0.02,WeatherDisplay:10.37,2013-09-11 18:30:00,
2013-09-11 14:35:00,95.2,75.9,30.11,South,177,3.6,3.6,54,0.00,FEW,,0.02,WeatherDisplay:10.37,2013-09-11 18:35:00,
2013-09-11 14:40:00,95.2,75.9,30.11,SE,132,2.5,5.1,54,0.00,FEW,,0.02,WeatherDisplay:10.37,2013-09-11 18:40:00,
2013-09-11 14:45:00,95.2,75.3,30.11,WSW,245,5.6,5.8,53,0.00,FEW,,0.02,WeatherDisplay:10.37,2013-09-11 18:45:00,
2013-09-11 14:50:00,94.3,75.1,30.10,SSE,155,2.2,2.3,54,0.00,FEW,,0.02,WeatherDisplay:10.37,2013-09-11 18:50:00,
2013-09-11 14:55:00,94.1,76.0,30.10,WSW,245,6.4,6.9,56,0.00,FEW,,0.02,WeatherDisplay:10.37,2013-09-11 18:55:00,
2013-09-11 15:00:00,94.3,75.6,30.10,West,267,7.4,7.4,55,0.00,FEW,,0.02,WeatherDisplay:10.37,2013-09-11 19:00:00,
2013-09-11 15:05:00,93.6,74.4,30.09,WNW,289,2.1,3.5,54,0.00,FEW,,0.02,WeatherDisplay:10.37,2013-09-11 19:05:00,
2013-09-11 15:10:00,92.8,74.8,30.10,WSW,245,6.0,6.0,56,0.00,CLR,,0.02,WeatherDisplay:10.37,2013-09-11 19:10:00,
2013-09-11 15:15:00,93.2,75.2,30.10,SE,132,2.9,3.5,56,0.00,CLR,,0.02,WeatherDisplay:10.37,2013-09-11 19:15:00,
2013-09-11 15:20:00,93.7,75.1,30.09,WSW,245,1.8,4.6,55,0.00,CLR,,0.02,WeatherDisplay:10.37,2013-09-11 19:20:00,
2013-09-11 15:25:00,93.7,73.5,30.09,West,267,4.3,5.8,52,0.00,CLR,,0.02,WeatherDisplay:10.37,2013-09-11 19:25:00,
2013-09-11 15:30:00,92.8,73.7,30.09,West,267,7.0,8.9,54,0.00,CLR,,0.02,WeatherDisplay:10.37,2013-09-11 19:30:00,
2013-09-11 15:35:00,93.0,74.5,30.09,West,267,5.6,5.8,55,0.00,CLR,,0.02,WeatherDisplay:10.37,2013-09-11 19:35:00,
2013-09-11 15:40:00,93.9,75.3,30.09,SSW,199,3.0,3.5,55,0.00,CLR,,0.02,WeatherDisplay:10.37,2013-09-11 19:40:00,
2013-09-11 15:45:00,93.9,73.6,30.09,NNW,335,5.6,5.8,52,0.00,CLR,,0.02,WeatherDisplay:10.37,2013-09-11 19:45:00,
2013-09-11 15:50:00,92.8,72.6,30.08,West,267,2.7,2.7,52,0.00,CLR,,0.02,WeatherDisplay:10.37,2013-09-11 19:50:00,
2013-09-11 15:55:00,92.3,73.2,30.08,WNW,289,1.6,2.7,54,0.00,CLR,,0.02,WeatherDisplay:10.37,2013-09-11 19:55:00,
2013-09-11 16:00:00,92.3,72.7,30.08,WSW,245,2.9,3.5,53,0.00,CLR,,0.02,WeatherDisplay:10.37,2013-09-11 20:00:00,
2013-09-11 16:05:00,92.1,72.0,30.08,South,177,0.0,1.3,52,0.00,CLR,,0.02,WeatherDisplay:10.37,2013-09-11 20:05:00,
2013-09-11 16:10:00,91.8,72.2,30.08,NW,312,4.2,4.9,53,0.00,CLR,,0.02,WeatherDisplay:10.37,2013-09-11 20:10:00,
2013-09-11 16:15:00,91.4,72.4,30.09,SSE,155,0.0,1.1,54,0.00,CLR,,0.02,WeatherDisplay:10.37,2013-09-11 20:15:00,
2013-09-11 16:20:00,91.6,72.6,30.09,NNW,335,1.6,3.5,54,0.00,CLR,,0.02,WeatherDisplay:10.37,2013-09-11 20:20:00,
2013-09-11 16:25:00,91.8,73.8,30.09,West,267,2.6,2.6,56,0.00,CLR,,0.02,WeatherDisplay:10.37,2013-09-11 20:25:00,
2013-09-11 16:30:00,91.8,73.8,30.09,WSW,245,4.7,5.1,56,0.00,CLR,,0.02,WeatherDisplay:10.37,2013-09-11 20:30:00,
2013-09-11 16:35:00,91.8,73.3,30.08,SW,222,2.8,3.5,55,0.00,CLR,,0.02,WeatherDisplay:10.37,2013-09-11 20:35:00,
2013-09-11 16:40:00,91.8,73.3,30.08,WSW,245,6.5,8.1,55,0.00,CLR,,0.02,WeatherDisplay:10.37,2013-09-11 20:40:00,
2013-09-11 16:45:00,92.3,73.8,30.09,West,267,1.3,1.3,55,0.00,CLR,,0.02,WeatherDisplay:10.37,2013-09-11 20:45:00,
2013-09-11 16:50:00,92.3,74.3,30.09,West,267,4.2,4.6,56,0.00,CLR,,0.02,WeatherDisplay:10.37,2013-09-11 20:50:00,
2013-09-11 16:55:00,92.5,74.0,30.09,SW,222,1.3,1.3,55,0.00,CLR,,0.02,WeatherDisplay:10.37,2013-09-11 20:55:00,
2013-09-11 17:00:00,92.5,73.4,30.08,West,267,3.6,3.6,54,0.00,CLR,,0.02,WeatherDisplay:10.37,2013-09-11 21:00:00,
2013-09-11 17:05:00,92.1,73.6,30.08,WSW,245,4.5,4.6,55,0.00,CLR,,0.02,WeatherDisplay:10.37,2013-09-11 21:05:00,
2013-09-11 17:10:00,91.9,73.5,30.08,West,263,3.0,0.0,55,0.00,CLR,,0.02,WeatherDisplay:10.37,2013-09-11 21:10:00,
2013-09-11 17:15:00,91.9,74.0,30.08,SSE,155,1.3,1.3,56,0.00,CLR,,0.02,WeatherDisplay:10.37,2013-09-11 21:15:00,
2013-09-11 17:20:00,92.3,74.3,30.08,SW,221,3.0,0.0,56,0.00,CLR,,0.02,WeatherDisplay:10.37,2013-09-11 21:20:00,
2013-09-11 17:25:00,92.5,74.0,30.09,WSW,245,1.1,2.9,55,0.00,CLR,,0.02,WeatherDisplay:10.37,2013-09-11 21:25:00,
2013-09-11 17:30:00,92.1,73.6,30.09,West,267,4.5,4.6,55,0.00,CLR,,0.02,WeatherDisplay:10.37,2013-09-11 21:30:00,
2013-09-11 17:35:00,91.4,73.0,30.08,SW,222,3.8,3.8,55,0.00,CLR,,0.02,WeatherDisplay:10.37,2013-09-11 21:35:00,
2013-09-11 17:40:00,91.2,73.3,30.08,WSW,252,6.0,0.0,56,0.00,CLR,,0.02,WeatherDisplay:10.37,2013-09-11 21:40:00,
2013-09-11 17:45:00,91.0,73.7,30.08,West,267,0.0,0.0,57,0.00,CLR,,0.02,WeatherDisplay:10.37,2013-09-11 21:45:00,
2013-09-11 17:50:00,90.9,74.0,30.08,WSW,245,6.7,6.9,58,0.00,CLR,,0.02,WeatherDisplay:10.37,2013-09-11 21:50:00,
2013-09-11 17:55:00,90.9,74.0,30.08,WSW,245,2.5,5.8,58,0.00,CLR,,0.02,WeatherDisplay:10.37,2013-09-11 21:55:00,
2013-09-11 18:00:00,90.9,74.0,30.08,WSW,245,12.0,12.7,58,0.00,CLR,,0.02,WeatherDisplay:10.37,2013-09-11 22:00:00,
2013-09-11 18:05:00,91.0,74.2,30.09,WSW,245,12.8,12.8,58,0.00,CLR,,0.02,WeatherDisplay:10.37,2013-09-11 22:05:00,
2013-09-11 18:10:00,91.0,73.7,30.09,SSW,204,3.0,0.0,57,0.00,CLR,,0.02,WeatherDisplay:10.37,2013-09-11 22:10:00,
2013-09-11 18:15:00,90.3,72.5,30.10,South,177,1.1,1.1,56,0.00,CLR,,0.02,WeatherDisplay:10.37,2013-09-11 22:15:00,
2013-09-11 18:20:00,89.4,72.2,30.10,South,190,3.0,0.0,57,0.00,CLR,,0.02,WeatherDisplay:10.37,2013-09-11 22:20:00,
2013-09-11 18:25:00,88.3,71.2,30.11,WSW,245,15.2,15.2,57,0.00,CLR,,0.02,WeatherDisplay:10.37,2013-09-11 22:25:00,
2013-09-11 18:30:00,88.3,71.2,30.11,South,190,14.0,0.0,57,0.00,CLR,,0.02,WeatherDisplay:10.37,2013-09-11 22:30:00,
2013-09-11 18:35:00,86.2,69.7,30.11,South,177,2.5,2.5,58,0.02,RA,,0.04,WeatherDisplay:10.37,2013-09-11 22:35:00,
2013-09-11 18:40:00,85.6,69.2,30.11,ESE,109,3.3,6.0,58,0.02,RA,,0.04,WeatherDisplay:10.37,2013-09-11 22:40:00,
2013-09-11 18:45:00,85.6,69.7,30.11,SSE,155,0.0,0.0,59,0.02,CLR,,0.04,WeatherDisplay:10.37,2013-09-11 22:45:00,
2013-09-11 18:51:00,85.6,70.6,30.11,SSW,199,2.9,6.0,61,0.02,CLR,,0.04,WeatherDisplay:10.37,2013-09-11 22:51:00,
2013-09-11 18:56:00,85.6,70.6,30.10,South,177,6.7,6.9,61,0.02,CLR,,0.04,WeatherDisplay:10.37,2013-09-11 22:56:00,
2013-09-11 19:01:00,85.6,70.2,30.10,SSW,199,4.5,5.8,60,0.02,CLR,,0.04,WeatherDisplay:10.37,2013-09-11 23:01:00,
2013-09-11 19:06:00,84.7,69.3,30.10,ESE,109,4.1,5.8,60,0.02,CLR,,0.04,WeatherDisplay:10.37,2013-09-11 23:06:00,
2013-09-11 19:11:00,84.4,69.0,30.10,SSW,199,2.2,2.3,60,0.02,SCT,,0.04,WeatherDisplay:10.37,2013-09-11 23:11:00,
2013-09-11 19:16:00,84.0,69.1,30.09,West,267,1.5,2.3,61,0.02,SCT,,0.04,WeatherDisplay:10.37,2013-09-11 23:16:00,
2013-09-11 19:21:00,83.8,69.0,30.08,WSW,245,0.9,1.1,61,0.02,SCT,,0.04,WeatherDisplay:10.37,2013-09-11 23:21:00,
2013-09-11 19:26:00,83.5,69.6,30.08,SSW,199,2.7,2.7,63,0.02,SCT,,0.04,WeatherDisplay:10.37,2013-09-11 23:26:00,
2013-09-11 19:31:00,83.5,69.6,30.08,SSW,199,2.5,3.5,63,0.02,SCT,,0.04,WeatherDisplay:10.37,2013-09-11 23:31:00,
2013-09-11 19:36:00,83.5,69.6,30.08,South,177,2.9,3.5,63,0.00,SCT,,0.04,WeatherDisplay:10.37,2013-09-11 23:36:00,
2013-09-11 19:41:00,81.7,68.3,30.08,SSW,199,0.3,0.0,64,0.00,SCT,,0.04,WeatherDisplay:10.37,2013-09-11 23:41:00,
2013-09-11 19:46:00,81.3,68.0,30.08,SW,222,1.4,1.4,64,0.00,SCT,,0.04,WeatherDisplay:10.37,2013-09-11 23:46:00,
2013-09-11 19:51:00,81.3,68.4,30.08,SW,222,1.2,1.2,65,0.00,SCT,,0.04,WeatherDisplay:10.37,2013-09-11 23:51:00,
2013-09-11 19:56:00,80.6,68.2,30.08,SSE,155,2.9,3.5,66,0.00,SCT,,0.04,WeatherDisplay:10.37,2013-09-11 23:56:00,
2013-09-11 20:01:00,79.9,67.5,30.08,WSW,245,2.5,2.5,66,0.00,SCT,,0.04,WeatherDisplay:10.37,2013-09-12 00:01:00,
2013-09-11 20:06:00,79.5,67.6,30.08,West,267,3.7,3.7,67,0.00,SCT,,0.04,WeatherDisplay:10.37,2013-09-12 00:06:00,
2013-09-11 20:11:00,79.5,67.6,30.08,SSW,199,1.2,1.2,67,0.00,CLR,,0.04,WeatherDisplay:10.37,2013-09-12 00:11:00,
2013-09-11 20:16:00,78.8,67.3,30.08,South,177,0.6,1.1,68,0.00,CLR,,0.04,WeatherDisplay:10.37,2013-09-12 00:16:00,
2013-09-11 20:21:00,78.4,67.0,30.08,West,267,1.7,2.3,68,0.00,CLR,,0.04,WeatherDisplay:10.37,2013-09-12 00:21:00,
2013-09-11 20:26:00,78.1,67.1,30.09,West,267,1.7,1.7,69,0.00,CLR,,0.04,WeatherDisplay:10.37,2013-09-12 00:26:00,
2013-09-11 20:31:00,77.7,66.7,30.09,West,267,2.2,2.3,69,0.00,CLR,,0.04,WeatherDisplay:10.37,2013-09-12 00:31:00,
2013-09-11 20:36:00,77.2,67.0,30.09,WSW,245,1.5,2.3,71,0.00,CLR,,0.04,WeatherDisplay:10.37,2013-09-12 00:36:00,
2013-09-11 20:41:00,77.0,66.9,30.09,SSW,199,1.1,2.3,71,0.00,CLR,,0.04,WeatherDisplay:10.37,2013-09-12 00:41:00,
2013-09-11 20:46:00,77.0,67.3,30.08,WSW,245,2.6,3.5,72,0.00,CLR,,0.04,WeatherDisplay:10.37,2013-09-12 00:46:00,
2013-09-11 20:51:00,76.6,66.9,30.08,SW,222,1.6,2.3,72,0.00,CLR,,0.04,WeatherDisplay:10.37,2013-09-12 00:51:00,
2013-09-11 20:56:00,76.5,66.8,30.09,SSW,199,0.7,1.1,72,0.00,CLR,,0.04,WeatherDisplay:10.37,2013-09-12 00:56:00,
2013-09-11 21:02:00,76.3,67.0,30.09,South,177,2.2,2.3,73,0.00,CLR,,0.04,WeatherDisplay:10.37,2013-09-12 01:02:00,
2013-09-11 21:07:00,75.9,66.6,30.09,South,177,2.9,3.5,73,0.00,CLR,,0.04,WeatherDisplay:10.37,2013-09-12 01:07:00,
2013-09-11 21:12:00,75.9,66.6,30.09,West,267,0.0,2.5,73,0.00,SCT,,0.04,WeatherDisplay:10.37,2013-09-12 01:12:00,
2013-09-11 21:17:00,75.6,66.7,30.09,South,177,3.8,3.8,74,0.00,SCT,,0.04,WeatherDisplay:10.37,2013-09-12 01:17:00,
2013-09-11 21:22:00,75.4,66.5,30.09,SSE,155,2.2,2.3,74,0.00,SCT,,0.04,WeatherDisplay:10.37,2013-09-12 01:22:00,
2013-09-11 21:27:00,75.4,66.5,30.09,South,177,2.5,3.5,74,0.00,SCT,,0.04,WeatherDisplay:10.37,2013-09-12 01:27:00,
2013-09-11 21:32:00,75.4,66.5,30.09,WSW,245,2.9,4.6,74,0.00,SCT,,0.04,WeatherDisplay:10.37,2013-09-12 01:32:00,
2013-09-11 21:37:00,75.0,66.2,30.08,WSW,245,0.0,5.8,74,0.00,SCT,,0.04,WeatherDisplay:10.37,2013-09-12 01:37:00,
2013-09-11 21:42:00,75.0,66.2,30.08,SSW,199,0.6,2.3,74,0.00,SCT,,0.04,WeatherDisplay:10.37,2013-09-12 01:42:00,
2013-09-11 21:47:00,74.8,66.4,30.10,SW,222,2.9,3.5,75,0.00,SCT,,0.04,WeatherDisplay:10.37,2013-09-12 01:47:00,
2013-09-11 21:52:00,74.8,66.4,30.10,SW,222,1.3,2.9,75,0.00,SCT,,0.04,WeatherDisplay:10.37,2013-09-12 01:52:00,
2013-09-11 21:57:00,74.5,66.0,30.10,SW,222,2.9,5.1,75,0.00,SCT,,0.04,WeatherDisplay:10.37,2013-09-12 01:57:00,
2013-09-11 22:02:00,74.5,66.0,30.10,SW,222,1.6,2.3,75,0.00,SCT,,0.04,WeatherDisplay:10.37,2013-09-12 02:02:00,
2013-09-11 22:07:00,74.5,66.0,30.09,SW,222,5.8,5.8,75,0.00,SCT,,0.04,WeatherDisplay:10.37,2013-09-12 02:07:00,
2013-09-11 22:12:00,74.3,65.9,30.09,WSW,245,3.6,3.6,75,0.00,CLR,,0.04,WeatherDisplay:10.37,2013-09-12 02:12:00,
2013-09-11 22:17:00,74.1,65.7,30.09,WSW,245,2.1,3.5,75,0.00,CLR,,0.04,WeatherDisplay:10.37,2013-09-12 02:17:00,
2013-09-11 22:22:00,73.9,65.5,30.10,SSE,155,0.0,1.3,75,0.00,CLR,,0.04,WeatherDisplay:10.37,2013-09-12 02:22:00,
2013-09-11 22:27:00,73.8,65.7,30.10,SSE,155,1.1,1.1,76,0.00,CLR,,0.04,WeatherDisplay:10.37,2013-09-12 02:27:00,
2013-09-11 22:32:00,73.6,65.9,30.10,SW,222,1.3,1.6,77,0.00,CLR,,0.04,WeatherDisplay:10.37,2013-09-12 02:32:00,
2013-09-11 22:37:00,73.2,65.6,30.10,SSW,199,2.1,2.3,77,0.00,CLR,,0.04,WeatherDisplay:10.37,2013-09-12 02:37:00,
2013-09-11 22:42:00,73.2,65.6,30.10,WSW,245,0.0,2.3,77,0.00,CLR,,0.04,WeatherDisplay:10.37,2013-09-12 02:42:00,
2013-09-11 22:47:00,73.0,65.4,30.09,SW,222,0.0,0.0,77,0.00,CLR,,0.04,WeatherDisplay:10.37,2013-09-12 02:47:00,
2013-09-11 22:52:00,72.9,65.2,30.09,SSE,155,0.0,0.0,77,0.00,CLR,,0.04,WeatherDisplay:10.37,2013-09-12 02:52:00,
2013-09-11 22:57:00,72.7,65.4,30.09,SSW,199,0.9,1.1,78,0.00,CLR,,0.04,WeatherDisplay:10.37,2013-09-12 02:57:00,
2013-09-11 23:02:00,72.3,65.4,30.09,SW,222,0.0,2.3,79,0.00,CLR,,0.04,WeatherDisplay:10.37,2013-09-12 03:02:00,
2013-09-11 23:07:00,72.3,65.4,30.08,SSW,199,0.0,0.0,79,0.00,CLR,,0.04,WeatherDisplay:10.37,2013-09-12 03:07:00,
2013-09-11 23:12:00,72.1,65.3,30.09,WSW,245,0.0,0.0,79,0.00,CLR,,0.04,WeatherDisplay:10.37,2013-09-12 03:12:00,
2013-09-11 23:17:00,72.0,65.1,30.09,South,177,2.1,3.5,79,0.00,CLR,,0.04,WeatherDisplay:10.37,2013-09-12 03:17:00,
2013-09-11 23:22:00,71.8,64.9,30.08,South,177,1.1,2.3,79,0.00,CLR,,0.04,WeatherDisplay:10.37,2013-09-12 03:22:00,
2013-09-11 23:27:00,71.6,64.7,30.08,WSW,245,1.8,2.3,79,0.00,CLR,,0.04,WeatherDisplay:10.37,2013-09-12 03:27:00,
2013-09-11 23:32:00,71.4,64.9,30.08,SW,222,0.7,1.1,80,0.00,CLR,,0.04,WeatherDisplay:10.37,2013-09-12 03:32:00,
2013-09-11 23:37:00,71.4,64.6,30.08,South,177,0.0,0.0,79,0.00,CLR,,0.04,WeatherDisplay:10.37,2013-09-12 03:37:00,
2013-09-11 23:42:00,71.2,64.8,30.08,South,177,0.0,2.3,80,0.00,CLR,,0.04,WeatherDisplay:10.37,2013-09-12 03:42:00,
2013-09-11 23:47:00,71.2,64.8,30.07,South,177,0.0,2.3,80,0.00,CLR,,0.04,WeatherDisplay:10.37,2013-09-12 03:47:00,
2013-09-11 23:52:00,70.9,64.4,30.07,SSW,199,1.1,1.1,80,0.00,CLR,,0.04,WeatherDisplay:10.37,2013-09-12 03:52:00,
2013-09-11 23:57:00,70.9,64.4,30.08,SW,222,0.7,3.5,80,0.00,CLR,,0.04,WeatherDisplay:10.37,2013-09-12 03:57:00,